Hourly Data Report for September 29, 2017

All times are specified in Local Standard Time (LST). Add 1 hour to adjust for Daylight Saving Time where and when it is observed.

CAPE DORSET A
NUNAVUT

64°13'49.000" N
76°31'30.000" W
48.20 m
2400637
71366
YTE

Download Data

Hourly Data (September 2017)
Hourly Data Report for September 29, 2017
Temp Definition
°C
Dew Point Temp Definition
°C
Rel Hum Definition
%
Wind Dir Definition
10's deg

Wind Spd Definition
km/h
Visibility Definition
km
Stn Press Definition
kPa
Hmdx Definition


Wind Chill Definition


Weather Definition


TIME
00:00 Legend Double Dagger -1.1 -5.2 74 30 17 16.1 101.09   -6 LegendNANA
01:00 Legend Double Dagger -1.3 -7.2 64 29 15 16.1 101.08   -6 LegendNANA
02:00 Legend Double Dagger -1.3 -5.2 75 28 18 16.1 101.08   -7 Snow
03:00 Legend Double Dagger -2.0 -3.8 87 29 24 16.1 101.08   -8 LegendNANA
04:00 Legend Double Dagger -2.4 -4.6 85 29 21 16.1 101.09   -8 LegendNANA
05:00 Legend Double Dagger -2.5 -4.2 88 29 21 16.1 101.12   -9 LegendNANA
06:00 Legend Double Dagger -2.5 -5.0 83 30 24 16.1 101.15   -9 Snow
07:00 Legend Double Dagger -2.4 -5.3 80 29 18 16.1 101.14   -8 Snow
08:00 Legend Double Dagger -2.4 -6.4 74 30 24 16.1 101.11   -9 LegendNANA
09:00 Legend Double Dagger -2.5 -6.3 75 29 18 16.1 101.06   -8 LegendNANA
10:00 Legend Double Dagger -2.1 -6.9 70 31 21 16.1 101.02   -8 LegendNANA
11:00 Legend Double Dagger -1.8 -7.8 64 30 18 16.1 100.99   -7 LegendNANA
12:00 Legend Double Dagger -1.5 -8.3 60 28 22 16.1 100.92   -7 LegendNANA
13:00 Legend Double Dagger -1.7 -8.5 60 27 18 16.1 100.88   -7 LegendNANA
14:00 Legend Double Dagger -1.7 -7.9 63 25 17 16.1 100.82   -7 LegendNANA
15:00 Legend Double Dagger -1.9 -7.9 64 24 15 16.1 100.74   -7 LegendNANA
16:00 Legend Double Dagger -1.9 -7.1 68 23 13 16.1 100.62   -6 LegendNANA
17:00 Legend Double Dagger -2.3 -4.3 86 19 13 12.9 100.48   -7 Snow
18:00 Legend Double Dagger -2.4 -3.8 90 17 17 16.1 100.34   -8 Snow
19:00 Legend Double Dagger -2.4 -3.4 93 16 21 3.6 100.18   -8 Snow
20:00 Legend Double Dagger -1.9 -2.6 95 15 24 9.7 100.01   -8 Snow
21:00 Legend Double Dagger -1.5 -2.1 96 14 30 4.0 99.80   -8 Snow
22:00 Legend Double Dagger -1.4 -2.1 95 13 35 8.1 99.56   -9 Snow
23:00 Legend Double Dagger -0.9 -1.3 97 13 32 4.0 99.35   -8 Snow

Notes on Data Quality.

Legend

  • E = Estimated
  • M = Missing
  • NA = Not Available
  • ‡ = Partner data that is not subject to review by the National Climate Archives
Date modified: